Weather in Dukhovskoye

Russia / Primorsky Krai     44°35′40″N   131°32′09″E
temp.,
°C
wind,
m/s
gust,
m/s
humid.,
%
clouds,
%
prec.,
mm/h
press.,
hPa
HPBL,
m
14 april, wed
wed1401:00−1wnw38370 0.0 1012584
04:00−2w48375 0.0 1012456
07:00−2wsw3836100 0.0 1012445
10:00+4w492381 0.0 10112287
13:00+6w5925100 0.0 10093163
16:00+7wnw61019100 0.0 10073573
19:00+7w4112076 0.0 10093039
22:00+4w4112854 0.0 1011454
15 april, thu
thu1501:00+1w22375 0.0 101326
04:000sw113977 0.0 101311
07:00+1ssw2237100 0.0 101328
10:00+7ssw36233 0.0 1012747
13:00+15sw48179 0.0 10102149
16:00+17sw561798 0.0 10082317
19:00+14sse5829100 0.0 1009406
22:00+8sse51052100 0.0 1012427
16 april, fri
fri1601:00+6s4106292 0.0 1011437
04:00+5s511795 0.0 1010434
07:00+5sse51494100 0.0 1009872
10:00+6sse81789100 0.0 10071165
13:00+8sse81775100 0.0 10051510
16:00+9sse8167490 0.3 10021690
19:00+7sse81375100 0.3 10011538
22:00+6sse6988100 1.1 1000844
17 april, sat
sat1701:00+5s3790100 0.6 1000532
04:00+5s3782100 0.7 1001289
07:00+3ssw2383100 0.0 100277
10:00+7wsw344995 0.0 10031049
13:00+10sw3438100 0.0 10021991
16:00+11wnw5442100 0.0 10021842
19:00+8nnw566996 0.5 10051043
22:00+5nw4886100 0.6 1008782
18 april, sun
sun1801:00+6wnw3872100 0.0 1008465
04:00+5wnw51280100 0.0 1009797
07:00+5nw4107886 0.1 10101009
10:00+5nw498397 0.2 1012861
13:00+11nnw485199 0.1 10111798
16:00+11nnw484593 0.2 10101684
19:00+12wnw154756 0.0 1010700
22:00+8wnw38530 0.0 1011206